Time,TemperatureF,DewpointF,PressureIn,WindDirection,WindDirectionDegrees,WindSpeedMPH,WindSpeedGustMPH,Humidity,HourlyPrecipIn,Conditions,Clouds,dailyrainin,SoftwareType,DateUTC
2013-08-07 18:24:00,76.7,38.2,29.79,SE,126,10.0,10.0,25,0.00,CLR,,0.00,WeatherDisplay:10.37,2013-08-08 01:24:00,
2013-08-07 18:25:00,76.7,38.2,29.79,ESE,109,3.5,3.5,25,0.00,CLR,,0.00,WeatherDisplay:10.37,2013-08-08 01:25:00,
2013-08-07 18:29:00,76.0,38.6,29.80,SE,138,10.4,10.4,26,0.00,CLR,,0.00,WeatherDisplay:10.37,2013-08-08 01:29:00,
2013-08-07 18:31:00,75.7,38.4,29.80,SSE,151,1.0,13.0,26,0.00,CLR,,0.00,WeatherDisplay:10.37,2013-08-08 01:31:00,
2013-08-07 18:36:00,74.7,38.5,29.80,East,100,10.4,10.4,27,0.00,CLR,,0.00,WeatherDisplay:10.37,2013-08-08 01:36:00,
2013-08-07 18:40:00,74.6,38.4,29.80,SSE,154,0.0,6.0,27,0.00,CLR,,0.00,WeatherDisplay:10.37,2013-08-08 01:40:00,
2013-08-07 18:45:00,74.0,37.9,29.81,SE,141,4.6,4.6,27,0.00,CLR,,0.00,WeatherDisplay:10.37,2013-08-08 01:45:00,
2013-08-07 18:50:00,73.7,38.6,29.81,ESE,106,11.0,11.0,28,0.00,CLR,,0.00,WeatherDisplay:10.37,2013-08-08 01:50:00,
2013-08-07 18:55:00,73.5,37.5,29.82,SSE,154,11.5,11.5,27,0.00,CLR,,0.00,WeatherDisplay:10.37,2013-08-08 01:55:00,
2013-08-07 19:00:00,73.3,38.2,29.82,ESE,119,6.9,6.9,28,0.00,CLR,,0.00,WeatherDisplay:10.37,2013-08-08 02:00:00,
2013-08-07 19:05:00,73.0,38.9,29.81,SE,145,4.6,4.6,29,0.00,CLR,,0.00,WeatherDisplay:10.37,2013-08-08 02:05:00,
2013-08-07 19:10:00,72.8,38.7,29.81,SSE,151,10.4,10.4,29,0.00,CLR,,0.00,WeatherDisplay:10.37,2013-08-08 02:10:00,
2013-08-07 19:15:00,72.7,38.6,29.82,South,184,12.7,12.7,29,0.00,CLR,,0.00,WeatherDisplay:10.37,2013-08-08 02:15:00,
2013-08-07 19:20:00,72.5,37.5,29.82,East,99,13.8,13.8,28,0.00,CLR,,0.00,WeatherDisplay:10.37,2013-08-08 02:20:00,
2013-08-07 19:25:00,72.3,37.4,29.82,SSE,147,5.8,5.8,28,0.00,CLR,,0.00,WeatherDisplay:10.37,2013-08-08 02:25:00,
2013-08-07 19:30:00,71.8,36.9,29.82,SE,128,11.5,11.5,28,0.00,CLR,,0.00,WeatherDisplay:10.37,2013-08-08 02:30:00,
2013-08-07 19:35:00,71.6,37.6,29.83,SE,137,12.7,12.7,29,0.00,CLR,,0.00,WeatherDisplay:10.37,2013-08-08 02:35:00,
2013-08-07 19:40:00,71.5,37.6,29.83,SE,141,2.3,0.0,29,0.00,CLR,,0.00,WeatherDisplay:10.37,2013-08-08 02:40:00,
2013-08-07 19:45:00,71.5,36.7,29.83,South,174,5.8,5.8,28,0.00,CLR,,0.00,WeatherDisplay:10.37,2013-08-08 02:45:00,
2013-08-07 19:50:00,71.5,36.7,29.83,WSW,237,4.6,4.6,28,0.00,CLR,,0.00,WeatherDisplay:10.37,2013-08-08 02:50:00,
2013-08-07 19:55:00,71.5,36.7,29.83,South,169,8.1,8.1,28,0.00,CLR,,0.00,WeatherDisplay:10.37,2013-08-08 02:55:00,
2013-08-07 20:00:00,71.5,36.7,29.83,SSE,158,0.0,0.0,28,0.00,CLR,,0.00,WeatherDisplay:10.37,2013-08-08 03:00:00,
2013-08-07 20:05:00,71.3,36.5,29.83,SSE,160,1.1,0.0,28,0.00,CLR,,0.00,WeatherDisplay:10.37,2013-08-08 03:05:00,
2013-08-07 20:10:00,71.3,36.5,29.84,WSW,241,2.0,2.0,28,0.00,CLR,,0.00,WeatherDisplay:10.37,2013-08-08 03:10:00,
2013-08-07 20:15:00,71.1,36.3,29.84,South,179,0.0,0.0,28,0.00,CLR,,0.00,WeatherDisplay:10.37,2013-08-08 03:15:00,
2013-08-07 20:20:00,71.1,35.4,29.84,SSE,165,5.8,5.8,27,0.00,CLR,,0.00,WeatherDisplay:10.37,2013-08-08 03:20:00,
2013-08-07 20:25:00,71.1,36.3,29.83,SW,220,0.0,0.0,28,0.00,CLR,,0.00,WeatherDisplay:10.37,2013-08-08 03:25:00,
2013-08-07 20:30:00,70.9,36.1,29.83,South,175,0.0,0.0,28,0.00,CLR,,0.00,WeatherDisplay:10.37,2013-08-08 03:30:00,
2013-08-07 20:35:00,70.9,36.1,29.83,SSW,206,0.0,0.0,28,0.00,CLR,,0.00,WeatherDisplay:10.37,2013-08-08 03:35:00,
2013-08-07 20:40:00,70.9,36.1,29.84,SE,137,0.0,0.0,28,0.00,CLR,,0.00,WeatherDisplay:10.37,2013-08-08 03:40:00,
2013-08-07 20:46:00,70.8,36.1,29.83,SW,215,0.0,0.0,28,0.00,CLR,,0.00,WeatherDisplay:10.37,2013-08-08 03:46:00,
2013-08-07 20:51:00,70.8,37.0,29.83,SW,229,0.0,0.0,29,0.00,CLR,,0.00,WeatherDisplay:10.37,2013-08-08 03:51:00,
2013-08-07 20:56:00,70.8,37.0,29.83,SW,219,0.0,0.0,29,0.00,CLR,,0.00,WeatherDisplay:10.37,2013-08-08 03:56:00,
2013-08-07 21:01:00,70.8,36.1,29.83,SSW,206,1.1,1.1,28,0.00,CLR,,0.00,WeatherDisplay:10.37,2013-08-08 04:01:00,
2013-08-07 21:02:00,70.8,36.1,29.82,SSW,206,1.1,0.0,28,0.00,CLR,,0.00,WeatherDisplay:10.37,2013-08-08 04:02:00,
2013-08-07 21:03:00,70.8,37.0,29.82,West,260,1.1,0.0,29,0.00,CLR,,0.00,WeatherDisplay:10.37,2013-08-08 04:03:00,
2013-08-07 21:04:00,70.8,37.0,29.82,West,260,0.0,0.0,29,0.00,CLR,,0.00,WeatherDisplay:10.37,2013-08-08 04:04:00,
2013-08-07 21:09:00,70.6,37.6,29.82,West,260,0.0,0.0,30,0.00,CLR,,0.00,WeatherDisplay:10.37,2013-08-08 04:09:00,
2013-08-07 21:10:00,70.6,37.6,29.82,West,260,0.0,0.0,30,0.00,CLR,,0.00,WeatherDisplay:10.37,2013-08-08 04:10:00,
2013-08-07 21:15:00,70.4,37.5,29.83,West,260,0.0,0.0,30,0.00,CLR,,0.00,WeatherDisplay:10.37,2013-08-08 04:15:00,
2013-08-07 21:20:00,69.9,37.0,29.83,West,260,0.0,0.0,30,0.00,CLR,,0.00,WeatherDisplay:10.37,2013-08-08 04:20:00,
2013-08-07 21:25:00,69.6,37.6,29.83,West,260,0.0,0.0,31,0.00,CLR,,0.00,WeatherDisplay:10.37,2013-08-08 04:25:00,
2013-08-07 21:30:00,69.4,39.8,29.84,West,260,0.0,0.0,34,0.00,CLR,,0.00,WeatherDisplay:10.37,2013-08-08 04:30:00,
2013-08-07 21:35:00,69.3,37.3,29.84,West,261,0.0,0.0,31,0.00,CLR,,0.00,WeatherDisplay:10.37,2013-08-08 04:35:00,
2013-08-07 21:40:00,69.3,38.2,29.84,West,261,0.0,0.0,32,0.00,CLR,,0.00,WeatherDisplay:10.37,2013-08-08 04:40:00,
2013-08-07 21:45:00,69.1,38.0,29.84,West,261,0.0,0.0,32,0.00,CLR,,0.00,WeatherDisplay:10.37,2013-08-08 04:45:00,
2013-08-07 21:50:00,68.8,39.3,29.84,West,261,0.0,0.0,34,0.00,CLR,,0.00,WeatherDisplay:10.37,2013-08-08 04:50:00,
2013-08-07 21:55:00,68.4,38.2,29.84,West,261,0.0,0.0,33,0.00,CLR,,0.00,WeatherDisplay:10.37,2013-08-08 04:55:00,
2013-08-07 22:00:00,68.3,38.1,29.84,West,261,0.0,0.0,33,0.00,CLR,,0.00,WeatherDisplay:10.37,2013-08-08 05:00:00,
2013-08-07 22:05:00,67.9,38.5,29.84,West,261,0.0,0.0,34,0.00,CLR,,0.00,WeatherDisplay:10.37,2013-08-08 05:05:00,
2013-08-07 22:10:00,67.8,38.4,29.84,West,261,0.0,0.0,34,0.00,CLR,,0.00,WeatherDisplay:10.37,2013-08-08 05:10:00,
2013-08-07 22:15:00,67.6,39.0,29.84,West,261,0.0,0.0,35,0.00,CLR,,0.00,WeatherDisplay:10.37,2013-08-08 05:15:00,
2013-08-07 22:20:00,67.3,39.4,29.84,West,261,0.0,0.0,36,0.00,CLR,,0.00,WeatherDisplay:10.37,2013-08-08 05:20:00,
2013-08-07 22:25:00,67.1,39.9,29.84,West,261,0.0,0.0,37,0.00,CLR,,0.00,WeatherDisplay:10.37,2013-08-08 05:25:00,
2013-08-07 22:30:00,66.8,41.0,29.83,West,261,0.0,0.0,39,0.00,CLR,,0.00,WeatherDisplay:10.37,2013-08-08 05:30:00,
2013-08-07 22:35:00,66.6,40.2,29.83,West,261,0.0,0.0,38,0.00,CLR,,0.00,WeatherDisplay:10.37,2013-08-08 05:35:00,
2013-08-07 22:40:00,66.3,41.2,29.84,West,261,0.0,0.0,40,0.00,CLR,,0.00,WeatherDisplay:10.37,2013-08-08 05:40:00,
2013-08-07 22:45:00,66.1,39.7,29.84,West,261,0.0,0.0,38,0.00,CLR,,0.00,WeatherDisplay:10.37,2013-08-08 05:45:00,
2013-08-07 22:50:00,66.0,39.7,29.84,West,261,0.0,0.0,38,0.00,CLR,,0.00,WeatherDisplay:10.37,2013-08-08 05:50:00,
2013-08-07 22:55:00,66.1,39.1,29.84,West,261,0.0,0.0,37,0.00,CLR,,0.00,WeatherDisplay:10.37,2013-08-08 05:55:00,
2013-08-07 23:00:00,66.1,39.7,29.83,West,261,0.0,0.0,38,0.00,CLR,,0.00,WeatherDisplay:10.37,2013-08-08 06:00:00,
2013-08-07 23:05:00,66.4,39.3,29.81,West,261,0.0,0.0,37,0.00,CLR,,0.00,WeatherDisplay:10.37,2013-08-08 06:05:00,
2013-08-07 23:10:00,66.4,39.3,29.81,West,261,0.0,0.0,37,0.00,CLR,,0.00,WeatherDisplay:10.37,2013-08-08 06:10:00,
2013-08-07 23:15:00,66.4,39.3,29.81,West,261,0.0,0.0,37,0.00,CLR,,0.00,WeatherDisplay:10.37,2013-08-08 06:15:00,
2013-08-07 23:20:00,66.6,39.5,29.81,West,261,0.0,0.0,37,0.00,CLR,,0.00,WeatherDisplay:10.37,2013-08-08 06:20:00,
2013-08-07 23:25:00,66.8,39.7,29.81,West,261,0.0,0.0,37,0.00,CLR,,0.00,WeatherDisplay:10.37,2013-08-08 06:25:00,
2013-08-07 23:30:00,66.9,39.8,29.81,West,261,0.0,0.0,37,0.00,CLR,,0.00,WeatherDisplay:10.37,2013-08-08 06:30:00,
2013-08-07 23:35:00,66.9,39.8,29.81,West,261,0.0,0.0,37,0.00,CLR,,0.00,WeatherDisplay:10.37,2013-08-08 06:35:00,
2013-08-07 23:40:00,66.8,39.7,29.81,West,261,0.0,0.0,37,0.00,CLR,,0.00,WeatherDisplay:10.37,2013-08-08 06:40:00,
2013-08-07 23:45:00,66.6,40.2,29.81,West,261,0.0,0.0,38,0.00,CLR,,0.00,WeatherDisplay:10.37,2013-08-08 06:45:00,
2013-08-07 23:50:00,66.8,40.4,29.80,West,261,0.0,0.0,38,0.00,CLR,,0.00,WeatherDisplay:10.37,2013-08-08 06:50:00,
2013-08-07 23:55:00,66.8,40.4,29.79,West,261,0.0,0.0,38,0.00,CLR,,0.00,WeatherDisplay:10.37,2013-08-08 06:55:00,